Time,TemperatureF,DewpointF,PressureIn,WindDirection,WindDirectionDegrees,WindSpeedMPH,WindSpeedGustMPH,Humidity,HourlyPrecipIn,Conditions,Clouds,dailyrainin,SolarRadiationWatts/m^2,SoftwareType,DateUTC
2013-01-29 00:04:00,25.0,22.0,-100.00,ENE,71,2.0,8.0,87,0.00,,,0.00,0.000000,,2013-01-29 05:04:00,
2013-01-29 00:12:00,25.0,22.0,-100.00,ENE,71,2.0,8.0,87,0.00,,,0.00,0.000000,,2013-01-29 05:12:00,
2013-01-29 00:22:00,25.0,22.0,-100.00,ENE,71,2.0,8.0,87,0.00,,,0.00,0.000000,,2013-01-29 05:22:00,
2013-01-29 00:32:00,25.0,22.0,-100.00,ENE,71,2.0,8.0,87,0.00,,,0.00,0.000000,,2013-01-29 05:32:00,
2013-01-29 01:02:00,25.0,22.0,-100.00,NE,55,3.0,5.0,89,0.00,,,0.00,0.000000,,2013-01-29 06:02:00,
2013-01-29 01:11:00,25.0,22.0,-100.00,NE,55,3.0,5.0,89,0.00,,,0.00,0.000000,,2013-01-29 06:11:00,
2013-01-29 01:21:00,25.0,22.0,-100.00,NE,55,3.0,5.0,89,0.00,,,0.00,0.000000,,2013-01-29 06:21:00,
2013-01-29 01:32:00,25.0,22.0,-100.00,NE,55,3.0,5.0,89,0.00,,,0.00,0.000000,,2013-01-29 06:32:00,
2013-01-29 02:02:00,22.0,19.0,-100.00,ESE,118,0.0,4.0,89,0.00,,,0.00,0.000000,,2013-01-29 07:02:00,
2013-01-29 02:11:00,22.0,19.0,-100.00,ESE,118,0.0,4.0,89,0.00,,,0.00,0.000000,,2013-01-29 07:11:00,
2013-01-29 02:21:00,22.0,19.0,-100.00,ESE,118,0.0,4.0,89,0.00,,,0.00,0.000000,,2013-01-29 07:21:00,
2013-01-29 02:32:00,22.0,19.0,-100.00,ESE,118,0.0,4.0,89,0.00,,,0.00,0.000000,,2013-01-29 07:32:00,
2013-01-29 02:52:00,21.0,19.0,-100.00,East,97,1.0,3.0,92,0.00,,,0.00,0.000000,,2013-01-29 07:52:00,
2013-01-29 03:02:00,21.0,19.0,-100.00,East,97,1.0,3.0,92,0.00,,,0.00,0.000000,,2013-01-29 08:02:00,
2013-01-29 03:11:00,21.0,19.0,-100.00,East,97,1.0,3.0,92,0.00,,,0.00,0.000000,,2013-01-29 08:11:00,
2013-01-29 03:21:00,21.0,19.0,-100.00,East,97,1.0,3.0,92,0.00,,,0.00,0.000000,,2013-01-29 08:21:00,
2013-01-29 03:32:00,21.0,19.0,-100.00,East,97,1.0,3.0,92,0.00,,,0.00,0.000000,,2013-01-29 08:32:00,
2013-01-29 04:02:00,23.0,21.0,-100.00,ENE,62,3.0,4.0,91,0.00,,,0.00,0.000000,,2013-01-29 09:02:00,
2013-01-29 04:11:00,23.0,21.0,-100.00,ENE,62,3.0,4.0,91,0.00,,,0.00,0.000000,,2013-01-29 09:11:00,
2013-01-29 04:21:00,23.0,21.0,-100.00,ENE,62,3.0,4.0,91,0.00,,,0.00,0.000000,,2013-01-29 09:21:00,
2013-01-29 04:32:00,23.0,21.0,-100.00,ENE,62,3.0,4.0,91,0.00,,,0.00,0.000000,,2013-01-29 09:32:00,
2013-01-29 05:02:00,25.0,22.0,-100.00,NE,47,3.0,6.0,90,0.00,,,0.00,0.000000,,2013-01-29 10:02:00,
2013-01-29 05:11:00,25.0,22.0,-100.00,NE,47,3.0,6.0,90,0.00,,,0.00,0.000000,,2013-01-29 10:11:00,
2013-01-29 05:21:00,25.0,22.0,-100.00,NE,47,3.0,6.0,90,0.00,,,0.00,0.000000,,2013-01-29 10:21:00,
2013-01-29 05:32:00,25.0,22.0,-100.00,NE,47,3.0,6.0,90,0.00,,,0.00,0.000000,,2013-01-29 10:32:00,
2013-01-29 06:02:00,23.0,20.0,-100.00,ENE,64,2.0,4.0,88,0.00,,,0.00,0.000000,,2013-01-29 11:02:00,
2013-01-29 06:12:00,23.0,20.0,-100.00,ENE,64,2.0,4.0,88,0.00,,,0.00,0.000000,,2013-01-29 11:12:00,
2013-01-29 06:22:00,23.0,20.0,-100.00,ENE,64,2.0,4.0,88,0.00,,,0.00,0.000000,,2013-01-29 11:22:00,
2013-01-29 06:32:00,23.0,20.0,-100.00,ENE,64,2.0,4.0,88,0.00,,,0.00,0.000000,,2013-01-29 11:32:00,
2013-01-29 06:53:00,18.0,16.0,-100.00,SSE,155,0.0,3.0,90,0.00,,,0.00,0.000000,,2013-01-29 11:53:00,
2013-01-29 07:03:00,18.0,16.0,-100.00,SSE,155,0.0,3.0,90,0.00,,,0.00,0.000000,,2013-01-29 12:03:00,
2013-01-29 07:12:00,18.0,16.0,-100.00,SSE,155,0.0,3.0,90,0.00,,,0.00,0.000000,,2013-01-29 12:12:00,
2013-01-29 07:22:00,18.0,16.0,-100.00,SSE,155,0.0,3.0,90,0.00,,,0.00,0.000000,,2013-01-29 12:22:00,
2013-01-29 07:33:00,18.0,16.0,-100.00,SSE,155,0.0,3.0,90,0.00,,,0.00,0.000000,,2013-01-29 12:33:00,
2013-01-29 08:02:00,18.0,16.0,-100.00,SSE,149,2.0,2.0,90,0.00,,,0.00,5.000000,,2013-01-29 13:02:00,
2013-01-29 08:12:00,18.0,16.0,-100.00,SSE,149,2.0,2.0,90,0.00,,,0.00,5.000000,,2013-01-29 13:12:00,
2013-01-29 08:23:00,18.0,16.0,-100.00,SSE,149,2.0,2.0,90,0.00,,,0.00,5.000000,,2013-01-29 13:23:00,
2013-01-29 08:32:00,18.0,16.0,-100.00,SSE,149,2.0,2.0,90,0.00,,,0.00,5.000000,,2013-01-29 13:32:00,
2013-01-29 08:53:00,26.0,22.0,-100.00,SE,143,0.0,2.0,84,0.00,,,0.00,76.000000,,2013-01-29 13:53:00,
2013-01-29 09:02:00,26.0,22.0,-100.00,SE,143,0.0,2.0,84,0.00,,,0.00,76.000000,,2013-01-29 14:02:00,
2013-01-29 09:12:00,26.0,22.0,-100.00,SE,143,0.0,2.0,84,0.00,,,0.00,76.000000,,2013-01-29 14:12:00,
2013-01-29 09:22:00,26.0,22.0,-100.00,SE,143,0.0,2.0,84,0.00,,,0.00,76.000000,,2013-01-29 14:22:00,
2013-01-29 09:33:00,26.0,22.0,-100.00,SE,143,0.0,2.0,84,0.00,,,0.00,76.000000,,2013-01-29 14:33:00,
2013-01-29 10:03:00,33.0,23.0,-100.00,NNE,19,3.0,5.0,65,0.02,,,0.02,185.000000,,2013-01-29 15:03:00,
2013-01-29 10:12:00,33.0,23.0,-100.00,NNE,19,3.0,5.0,65,0.02,,,0.02,185.000000,,2013-01-29 15:12:00,
2013-01-29 10:22:00,33.0,23.0,-100.00,NNE,19,3.0,5.0,65,0.02,,,0.02,185.000000,,2013-01-29 15:22:00,
2013-01-29 10:33:00,33.0,23.0,-100.00,NNE,19,3.0,5.0,65,0.02,,,0.02,185.000000,,2013-01-29 15:33:00,
2013-01-29 11:03:00,38.0,24.0,-100.00,North,2,2.0,5.0,56,0.00,,,0.02,406.000000,,2013-01-29 16:03:00,
2013-01-29 11:13:00,38.0,24.0,-100.00,North,2,2.0,5.0,56,0.00,,,0.02,406.000000,,2013-01-29 16:13:00,
2013-01-29 11:23:00,38.0,24.0,-100.00,North,2,2.0,5.0,56,0.00,,,0.02,406.000000,,2013-01-29 16:23:00,
2013-01-29 11:32:00,38.0,24.0,-100.00,North,2,2.0,5.0,56,0.00,,,0.02,406.000000,,2013-01-29 16:32:00,
2013-01-29 12:03:00,34.0,24.0,-100.00,NNW,335,3.0,6.0,67,0.00,,,0.02,347.000000,,2013-01-29 17:03:00,
2013-01-29 12:12:00,34.0,24.0,-100.00,NNW,335,3.0,6.0,67,0.00,,,0.02,347.000000,,2013-01-29 17:12:00,
2013-01-29 12:22:00,34.0,24.0,-100.00,NNW,335,3.0,6.0,67,0.00,,,0.02,347.000000,,2013-01-29 17:22:00,
2013-01-29 12:33:00,34.0,24.0,-100.00,NNW,335,3.0,6.0,67,0.00,,,0.02,347.000000,,2013-01-29 17:33:00,
2013-01-29 13:04:00,36.0,26.0,-100.00,NNW,340,2.0,6.0,66,0.00,,,0.02,282.000000,,2013-01-29 18:04:00,
2013-01-29 13:13:00,36.0,26.0,-100.00,NNW,340,2.0,6.0,66,0.00,,,0.02,282.000000,,2013-01-29 18:13:00,
2013-01-29 13:22:00,36.0,26.0,-100.00,NNW,340,2.0,6.0,66,0.00,,,0.02,282.000000,,2013-01-29 18:22:00,
2013-01-29 13:33:00,36.0,26.0,-100.00,NNW,340,2.0,6.0,66,0.00,,,0.02,282.000000,,2013-01-29 18:33:00,
2013-01-29 14:03:00,38.0,25.0,-100.00,NW,324,2.0,6.0,59,0.00,,,0.02,362.000000,,2013-01-29 19:03:00,
2013-01-29 14:12:00,38.0,25.0,-100.00,NW,324,2.0,6.0,59,0.00,,,0.02,362.000000,,2013-01-29 19:12:00,
2013-01-29 14:23:00,38.0,25.0,-100.00,NW,324,2.0,6.0,59,0.00,,,0.02,362.000000,,2013-01-29 19:23:00,
2013-01-29 14:33:00,38.0,25.0,-100.00,NW,324,2.0,6.0,59,0.00,,,0.02,362.000000,,2013-01-29 19:33:00,
2013-01-29 15:03:00,37.0,26.0,-100.00,NNW,340,3.0,7.0,63,0.00,,,0.02,250.000000,,2013-01-29 20:03:00,
2013-01-29 15:13:00,37.0,26.0,-100.00,NNW,340,3.0,7.0,63,0.00,,,0.02,250.000000,,2013-01-29 20:13:00,
2013-01-29 15:23:00,37.0,26.0,-100.00,NNW,340,3.0,7.0,63,0.00,,,0.02,250.000000,,2013-01-29 20:23:00,
2013-01-29 15:33:00,37.0,26.0,-100.00,NNW,340,3.0,7.0,63,0.00,,,0.02,250.000000,,2013-01-29 20:33:00,
2013-01-29 16:03:00,34.0,23.0,-100.00,NE,54,3.0,10.0,64,0.00,,,0.02,131.000000,,2013-01-29 21:03:00,
2013-01-29 16:12:00,34.0,23.0,-100.00,NE,54,3.0,10.0,64,0.00,,,0.02,131.000000,,2013-01-29 21:12:00,
2013-01-29 16:22:00,34.0,23.0,-100.00,NE,54,3.0,10.0,64,0.00,,,0.02,131.000000,,2013-01-29 21:22:00,
2013-01-29 16:33:00,34.0,23.0,-100.00,NE,54,3.0,10.0,64,0.00,,,0.02,131.000000,,2013-01-29 21:33:00,
2013-01-29 17:03:00,31.0,25.0,-100.00,SSE,162,1.0,3.0,78,0.00,,,0.02,26.000000,,2013-01-29 22:03:00,
2013-01-29 17:12:00,31.0,25.0,-100.00,SSE,162,1.0,3.0,78,0.00,,,0.02,26.000000,,2013-01-29 22:12:00,
2013-01-29 17:22:00,31.0,25.0,-100.00,SSE,162,1.0,3.0,78,0.00,,,0.02,26.000000,,2013-01-29 22:22:00,
2013-01-29 17:33:00,31.0,25.0,-100.00,SSE,162,1.0,3.0,78,0.00,,,0.02,26.000000,,2013-01-29 22:33:00,
2013-01-29 18:02:00,30.0,24.0,-100.00,SE,139,0.0,4.0,79,0.00,,,-99.99,0.000000,,2013-01-29 23:02:00,
2013-01-29 18:12:00,30.0,24.0,-100.00,SE,139,0.0,4.0,79,0.00,,,-99.99,0.000000,,2013-01-29 23:12:00,
2013-01-29 18:23:00,30.0,24.0,-100.00,SE,139,0.0,4.0,79,0.00,,,-99.99,0.000000,,2013-01-29 23:23:00,
2013-01-29 18:33:00,30.0,24.0,-100.00,SE,139,0.0,4.0,79,0.00,,,-99.99,0.000000,,2013-01-29 23:33:00,
2013-01-29 19:03:00,28.0,23.0,-100.00,SSW,208,2.0,3.0,82,0.00,,,0.02,0.000000,,2013-01-30 00:03:00,
2013-01-29 19:12:00,28.0,23.0,-100.00,SSW,208,2.0,3.0,82,0.00,,,0.02,0.000000,,2013-01-30 00:12:00,
2013-01-29 19:22:00,28.0,23.0,-100.00,SSW,208,2.0,3.0,82,0.00,,,0.02,0.000000,,2013-01-30 00:22:00,
2013-01-29 19:32:00,28.0,23.0,-100.00,SSW,208,2.0,3.0,82,0.00,,,0.02,0.000000,,2013-01-30 00:32:00,
2013-01-29 20:02:00,27.0,23.0,-100.00,South,184,1.0,3.0,85,0.00,,,0.02,0.000000,,2013-01-30 01:02:00,
2013-01-29 20:12:00,27.0,23.0,-100.00,South,184,1.0,3.0,85,0.00,,,0.02,0.000000,,2013-01-30 01:12:00,
2013-01-29 20:22:00,27.0,23.0,-100.00,South,184,1.0,3.0,85,0.00,,,0.02,0.000000,,2013-01-30 01:22:00,
2013-01-29 20:32:00,27.0,23.0,-100.00,South,184,1.0,3.0,85,0.00,,,0.02,0.000000,,2013-01-30 01:32:00,
2013-01-29 21:02:00,29.0,25.0,-100.00,SE,137,2.0,3.0,83,0.00,,,0.02,0.000000,,2013-01-30 02:02:00,
2013-01-29 21:12:00,29.0,25.0,-100.00,SE,137,2.0,3.0,83,0.00,,,0.02,0.000000,,2013-01-30 02:12:00,
2013-01-29 21:22:00,29.0,25.0,-100.00,SE,137,2.0,3.0,83,0.00,,,0.02,0.000000,,2013-01-30 02:22:00,
2013-01-29 21:33:00,29.0,25.0,-100.00,SE,137,2.0,3.0,83,0.00,,,0.02,0.000000,,2013-01-30 02:33:00,
2013-01-29 22:03:00,32.0,24.0,-100.00,ESE,119,3.0,4.0,73,0.00,,,0.02,0.000000,,2013-01-30 03:03:00,
2013-01-29 22:12:00,32.0,24.0,-100.00,ESE,119,3.0,4.0,73,0.00,,,0.02,0.000000,,2013-01-30 03:12:00,
2013-01-29 22:22:00,32.0,24.0,-100.00,ESE,119,3.0,4.0,73,0.00,,,0.02,0.000000,,2013-01-30 03:22:00,
2013-01-29 22:32:00,32.0,24.0,-100.00,ESE,119,3.0,4.0,73,0.00,,,0.02,0.000000,,2013-01-30 03:32:00,
2013-01-29 23:02:00,33.0,28.0,-100.00,SSE,160,2.0,5.0,81,0.00,,,0.02,0.000000,,2013-01-30 04:02:00,
2013-01-29 23:12:00,33.0,28.0,-100.00,SSE,160,2.0,5.0,81,0.00,,,0.02,0.000000,,2013-01-30 04:12:00,
2013-01-29 23:22:00,33.0,28.0,-100.00,SSE,160,2.0,5.0,81,0.00,,,0.02,0.000000,,2013-01-30 04:22:00,
2013-01-29 23:32:00,33.0,28.0,-100.00,SSE,160,2.0,5.0,81,0.00,,,0.02,0.000000,,2013-01-30 04:32:00,